FW7227 Weather Reports


Display with metric or nautical units.
time (UTC)temp
F
wind
direction
speed
MPH
gust
MPH
rain 1hr
in
rain 24hr
in
rain mn
in
humidity
%
barometer
mb
20260831134606 71 243 8.0 13.0 0.02 0.02 0.02 69 1010.2
20260831134056 70 242 5.0 15.0 0.02 0.02 0.02 71 1010.3
20260831133558 69 261 5.0 15.0 0.02 0.02 0.02 73 1010.3
20260831133106 69 248 7.0 15.0 0.02 0.02 0.02 74 1010.2
20260831132557 68 234 4.0 8.0 0.02 0.02 0.02 77 1010.2
20260831132057 67 255 4.0 14.0 0.02 0.02 0.02 80 1010.3
20260831131606 67 243 5.0 14.0 0.02 0.02 0.02 76 1010.4
20260831131057 68 253 7.0 26.0 0.02 0.02 0.02 72 1010.4
20260831130557 70 263 10.0 26.0 0.02 0.02 0.02 71 1010.4
20260831130104 72 238 15.0 25.0 0.00 0.00 0.00 62 1010.6
20260831125558 73 360 12.0 20.0 0.00 0.00 0.00 56 1010.3
20260831125056 74 360 9.0 19.0 0.00 0.00 0.00 55 1010.1
20260831124559 75 360 7.0 19.0 0.00 0.00 0.00 53 1010.1
20260831124057 76 223 6.0 22.0 0.00 0.00 0.00 51 1010.1
20260831123556 76 360 8.0 22.0 0.00 0.00 0.00 49 1010.0
20260831123110 76 360 10.0 21.0 0.00 0.00 0.00 50 1010.0
20260831122559 76 360 11.0 24.0 0.00 0.00 0.00 50 1010.0
20260831122057 75 222 11.0 24.0 0.00 0.00 0.00 54 1010.0
20260831121609 74 360 11.0 21.0 0.00 0.00 0.00 54 1010.0
20260831121059 74 360 8.0 19.0 0.00 0.00 0.00 54 1009.9
20260831120556 74 219 10.0 19.0 0.00 0.00 0.00 54 1010.1
20260831120124 74 229 9.0 22.0 0.00 0.00 0.00 55 1010.2
20260831115557 74 360 10.0 22.0 0.00 0.00 0.00 54 1010.1
20260831115059 75 249 11.0 22.0 0.00 0.00 0.00 54 1010.1
20260831114600 75 231 10.0 22.0 0.00 0.00 0.00 54 1010.0
20260831114057 76 360 9.0 22.0 0.00 0.00 0.00 53 1010.1
20260831113557 77 200 10.0 21.0 0.00 0.00 0.00 52 1010.1
20260831113107 76 180 11.0 21.0 0.00 0.00 0.00 51 1010.2
20260831112600 76 360 8.0 21.0 0.00 0.00 0.00 55 1010.3
20260831112058 75 360 10.0 21.0 0.00 0.00 0.00 56 1010.3
20260831111614 75 360 10.0 20.0 0.00 0.00 0.00 56 1010.3
20260831111057 74 360 8.0 18.0 0.00 0.00 0.00 59 1010.3
20260831110557 73 360 6.0 15.0 0.00 0.00 0.00 58 1010.3
20260831110104 73 360 7.0 17.0 0.00 0.00 0.00 58 1010.4
20260831105558 73 232 9.0 17.0 0.00 0.00 0.00 58 1010.5
20260831105100 73 360 10.0 17.0 0.00 0.00 0.00 59 1010.5
20260831104604 73 360 7.0 16.0 0.00 0.00 0.00 59 1010.6
20260831104059 73 360 7.0 16.0 0.00 0.00 0.00 58 1010.6
20260831103558 73 360 10.0 17.0 0.00 0.00 0.00 58 1010.6
20260831103108 73 360 10.0 19.0 0.00 0.00 0.00 60 1010.6
20260831102557 72 360 10.0 19.0 0.00 0.00 0.00 60 1010.6
20260831102057 72 240 8.0 16.0 0.00 0.00 0.00 60 1010.7
20260831101606 73 360 7.0 16.0 0.00 0.00 0.00 60 1010.7
20260831101058 73 259 7.0 18.0 0.00 0.00 0.00 60 1010.7
20260831100559 73 252 11.0 18.0 0.00 0.00 0.00 61 1010.8
20260831100114 73 254 9.0 20.0 0.00 0.00 0.00 60 1010.7
20260831095559 74 192 10.0 20.0 0.00 0.00 0.00 60 1010.9
20260831095056 74 245 10.0 20.0 0.00 0.00 0.00 60 1010.9
20260831094606 74 360 11.0 19.0 0.00 0.00 0.00 62 1010.8
20260831094057 73 360 8.0 19.0 0.00 0.00 0.00 65 1010.9
20260831093558 73 360 9.0 24.0 0.00 0.00 0.00 63 1010.9
20260831093109 72 360 10.0 24.0 0.00 0.00 0.00 65 1010.9
20260831092558 72 360 8.0 23.0 0.00 0.00 0.00 65 1010.9
20260831092058 72 266 10.0 23.0 0.00 0.00 0.00 66 1011.0
20260831091605 71 360 4.0 19.0 0.00 0.00 0.00 69 1011.0
20260831091059 71 360 13.0 19.0 0.00 0.00 0.00 68 1010.9
20260831090557 71 360 11.0 19.0 0.00 0.00 0.00 70 1011.0
20260831090109 70 360 8.0 19.0 0.00 0.00 0.00 71 1010.9
20260831085559 69 360 7.0 17.0 0.00 0.00 0.00 73 1010.9
20260831085058 68 360 9.0 17.0 0.00 0.00 0.00 74 1010.8
20260831084609 68 241 8.0 17.0 0.00 0.00 0.00 73 1010.8
20260831084057 68 225 7.0 18.0 0.00 0.00 0.00 73 1010.8
20260831083559 68 246 9.0 18.0 0.00 0.00 0.00 73 1010.8
20260831083108 68 244 7.0 17.0 0.00 0.00 0.00 73 1010.9
20260831082557 68 291 9.0 17.0 0.00 0.00 0.00 73 1011.0
20260831082058 69 241 8.0 14.0 0.00 0.00 0.00 73 1011.0
20260831081605 69 260 5.0 12.0 0.00 0.00 0.00 74 1011.0
20260831081057 68 249 6.0 12.0 0.00 0.00 0.00 74 1010.9
20260831080556 68 245 7.0 14.0 0.00 0.00 0.00 73 1010.9
20260831080137 68 249 7.0 14.0 0.00 0.00 0.00 74 1010.9
20260831075557 68 210 5.0 13.0 0.00 0.00 0.00 76 1010.9
20260831075057 67 240 5.0 13.0 0.00 0.00 0.00 77 1010.9
20260831074601 67 217 4.0 14.0 0.00 0.00 0.00 76 1010.9
20260831074058 67 225 9.0 15.0 0.00 0.00 0.00 76 1010.9
20260831073557 67 360 7.0 15.0 0.00 0.00 0.00 75 1010.9
20260831073117 67 235 9.0 15.0 0.00 0.00 0.00 74 1010.9
20260831072558 67 360 9.0 15.0 0.00 0.00 0.00 74 1010.8
20260831072056 68 213 9.0 15.0 0.00 0.00 0.00 74 1010.8
20260831071616 68 215 8.0 17.0 0.00 0.00 0.00 73 1010.7
20260831071059 68 212 8.0 17.0 0.00 0.00 0.00 73 1010.8
20260831070557 68 234 7.0 14.0 0.00 0.00 0.00 74 1010.8
20260831070112 68 229 6.0 15.0 0.00 0.00 0.00 75 1010.8
20260831065558 67 237 5.0 15.0 0.00 0.00 0.00 76 1010.8
20260831065056 67 245 6.0 13.0 0.00 0.00 0.00 75 1010.9
20260831064608 66 252 6.0 13.0 0.00 0.00 0.00 76 1010.8
20260831064055 66 212 7.0 13.0 0.00 0.00 0.00 77 1010.7
20260831063559 65 240 5.0 11.0 0.00 0.00 0.00 78 1010.7
20260831063111 65 250 4.0 10.0 0.00 0.00 0.00 79 1010.6
20260831062557 64 201 3.0 10.0 0.00 0.00 0.00 80 1010.5
20260831062056 63 211 4.0 10.0 0.00 0.00 0.00 80 1010.5
20260831061608 63 196 4.0 10.0 0.00 0.00 0.00 81 1010.4
20260831061059 63 360 4.0 10.0 0.00 0.00 0.00 81 1010.5
20260831060556 62 217 4.0 10.0 0.00 0.00 0.00 82 1010.4
20260831060110 62 215 5.0 10.0 0.00 0.00 0.00 82 1010.3
20260831055556 61 360 5.0 10.0 0.00 0.00 0.00 82 1010.3
20260831055056 61 360 5.0 15.0 0.00 0.00 0.00 83 1010.2
20260831054627 60 360 5.0 15.0 0.00 0.00 0.00 83 1010.1
20260831054056 60 360 2.0 6.0 0.00 0.00 0.00 83 1010.1
20260831053556 60 360 2.0 5.0 0.00 0.00 0.00 83 1010.2
20260831053109 60 360 2.0 5.0 0.00 0.00 0.00 83 1010.2
20260831052556 60 360 2.0 5.0 0.00 0.00 0.00 83 1010.3
20260831052059 60 360 2.0 8.0 0.00 0.00 0.00 82 1010.3
20260831051608 60 360 3.0 8.0 0.00 0.00 0.00 82 1010.2
20260831051058 60 360 3.0 5.0 0.00 0.00 0.00 82 1010.3
20260831050557 60 360 2.0 5.0 0.00 0.00 0.00 82 1010.2
20260831050110 60 360 2.0 4.0 0.00 0.00 0.00 81 1010.2
20260831045559 60 360 1.0 4.0 0.00 0.03 0.00 81 1010.1
20260831045056 60 360 2.0 8.0 0.00 0.03 0.00 81 1010.0
20260831044607 60 360 2.0 8.0 0.00 0.03 0.00 81 1009.9
20260831044056 60 360 3.0 8.0 0.00 0.03 0.00 80 1009.9
20260831043558 61 360 2.0 5.0 0.00 0.03 0.00 80 1010.0
20260831043106 61 360 2.0 5.0 0.00 0.03 0.00 80 1010.0
20260831042558 61 360 1.0 5.0 0.00 0.03 0.00 79 1009.9
20260831042056 61 360 1.0 5.0 0.00 0.03 0.00 79 1009.8
20260831041611 61 360 2.0 9.0 0.00 0.03 0.00 79 1009.8
20260831041059 61 360 1.0 9.0 0.00 0.03 0.00 79 1009.9
20260831040555 61 360 3.0 9.0 0.00 0.03 0.00 79 1010.1
20260831040111 61 360 3.0 6.0 0.00 0.03 0.00 78 1010.0
20260831035559 61 360 3.0 8.0 0.00 0.03 0.00 78 1009.9
20260831035056 61 360 3.0 8.0 0.00 0.03 0.00 78 1009.9
20260831034604 61 360 3.0 8.0 0.00 0.03 0.00 78 1009.8
20260831034057 61 360 3.0 6.0 0.00 0.03 0.00 78 1010.0
20260831033559 61 360 2.0 8.0 0.00 0.03 0.00 78 1010.0
20260831033059 61 360 3.0 8.0 0.00 0.03 0.00 78 1010.2
20260831032556 61 360 2.0 6.0 0.00 0.03 0.00 78 1010.2
20260831032057 61 360 2.0 8.0 0.00 0.03 0.00 78 1010.3
20260831031607 61 360 3.0 8.0 0.00 0.03 0.00 78 1010.3
20260831031057 61 360 3.0 9.0 0.00 0.03 0.00 78 1010.2
20260831030556 61 360 3.0 9.0 0.00 0.03 0.00 78 1010.1
20260831025557 61 360 4.0 8.0 0.00 0.03 0.00 79 1010.2
20260831025057 61 360 3.0 6.0 0.00 0.03 0.00 79 1010.2
20260831024606 61 360 3.0 6.0 0.00 0.03 0.00 79 1010.6
20260831024057 61 360 2.0 8.0 0.00 0.03 0.00 79 1010.8
20260831023556 61 360 3.0 8.0 0.00 0.03 0.00 79 1011.0
20260831023103 61 360 3.0 6.0 0.00 0.03 0.00 79 1011.1
20260831022600 61 360 2.0 8.0 0.00 0.03 0.00 79 1011.1
20260831022057 61 360 3.0 8.0 0.00 0.03 0.00 78 1010.9
20260831021604 61 360 3.0 8.0 0.00 0.03 0.00 78 1011.0
20260831021101 61 360 3.0 9.0 0.00 0.03 0.00 78 1011.0
20260831020558 61 360 4.0 9.0 0.00 0.03 0.00 78 1010.9
20260831020104 61 360 3.0 8.0 0.00 0.03 0.00 78 1010.9
20260831015601 61 360 2.0 8.0 0.00 0.03 0.00 78 1010.9
20260831015057 61 360 4.0 8.0 0.00 0.03 0.00 78 1010.9
20260831014605 61 360 3.0 6.0 0.00 0.03 0.00 78 1011.0
20260831014057 61 360 2.0 6.0 0.00 0.03 0.00 78 1011.2
20260831013557 61 360 3.0 8.0 0.00 0.03 0.00 78 1011.3
20260831013114 61 360 4.0 8.0 0.00 0.03 0.00 78 1011.4
20260831012558 61 360 4.0 8.0 0.00 0.03 0.00 78 1011.5
20260831012058 61 360 4.0 8.0 0.00 0.03 0.00 78 1011.3
20260831011600 61 360 4.0 8.0 0.00 0.03 0.00 78 1011.2
20260831011057 61 360 3.0 8.0 0.00 0.03 0.00 78 1011.3
20260831010557 61 360 1.0 5.0 0.00 0.03 0.00 79 1011.3
20260831010123 61 360 2.0 6.0 0.00 0.03 0.00 79 1011.4
20260831005557 61 360 3.0 8.0 0.00 0.03 0.00 79 1011.5
20260831005058 60 360 3.0 8.0 0.00 0.03 0.00 79 1011.6
20260831004611 60 360 4.0 8.0 0.00 0.03 0.00 80 1011.5
20260831004101 60 360 3.0 6.0 0.00 0.03 0.00 80 1011.6
20260831003557 60 360 2.0 6.0 0.00 0.03 0.00 80 1011.5
20260831003108 60 360 2.0 5.0 0.00 0.03 0.00 80 1011.7
20260831002557 60 360 2.0 5.0 0.00 0.03 0.00 80 1011.7
20260831002057 60 360 2.0 6.0 0.00 0.03 0.00 80 1011.7
20260831001602 60 360 3.0 6.0 0.00 0.03 0.00 80 1011.7
20260831001057 60 360 2.0 6.0 0.00 0.03 0.00 80 1011.7
20260831000557 60 360 2.0 6.0 0.00 0.03 0.00 80 1011.8
20260831000103 60 360 2.0 5.0 0.00 0.03 0.00 80 1011.9
20260830235559 60 360 1.0 5.0 0.00 0.03 0.00 80 1011.9
20260830235058 60 360 1.0 6.0 0.00 0.03 0.00 80 1011.9
20260830234600 60 360 1.0 6.0 0.00 0.03 0.00 80 1011.9
20260830234057 60 360 1.0 6.0 0.00 0.03 0.00 80 1012.0
20260830233557 60 360 2.0 5.0 0.00 0.03 0.00 80 1012.0
20260830233104 60 360 2.0 6.0 0.00 0.03 0.00 80 1012.0
20260830232558 60 360 3.0 6.0 0.00 0.03 0.00 80 1012.1
20260830232057 61 360 2.0 6.0 0.00 0.03 0.00 81 1012.0
20260830231607 61 360 3.0 8.0 0.00 0.03 0.00 81 1012.1
20260830231058 61 360 3.0 8.0 0.00 0.03 0.00 81 1012.2
20260830230558 60 360 3.0 8.0 0.00 0.03 0.00 81 1012.3
20260830230106 60 360 3.0 6.0 0.00 0.03 0.00 81 1012.3
20260830225558 60 360 3.0 8.0 0.00 0.04 0.00 81 1012.4
20260830225059 60 360 2.0 8.0 0.00 0.04 0.00 81 1012.3
20260830224607 61 360 2.0 4.0 0.00 0.04 0.00 81 1012.3
20260830224058 61 360 0.0 3.0 0.00 0.04 0.00 80 1012.3
20260830223558 61 0 0.0 4.0 0.00 0.04 0.00 80 1012.3
20260830223105 61 360 1.0 4.0 0.00 0.04 0.00 79 1012.3
20260830222558 61 360 1.0 3.0 0.00 0.04 0.00 79 1012.3
20260830222058 62 360 0.0 2.0 0.00 0.04 0.00 78 1012.3
20260830221605 62 0 0.0 3.0 0.00 0.04 0.00 78 1012.3
20260830221058 62 360 1.0 3.0 0.00 0.04 0.00 78 1012.3
20260830220558 62 360 1.0 3.0 0.00 0.04 0.00 78 1012.3
20260830220103 63 360 1.0 3.0 0.00 0.04 0.00 77 1012.4
20260830215601 63 0 0.0 2.0 0.00 0.04 0.04 77 1012.3
20260830215057 63 360 1.0 2.0 0.00 0.04 0.04 77 1012.4
20260830214605 63 360 0.0 0.0 0.00 0.04 0.04 76 1012.4
20260830214057 64 0 0.0 0.0 0.00 0.04 0.04 76 1012.4
20260830213558 64 0 0.0 2.0 0.00 0.04 0.04 76 1012.4
20260830213101 64 0 0.0 2.0 0.00 0.04 0.04 75 1012.4
20260830212557 65 0 0.0 2.0 0.00 0.04 0.04 74 1012.4
20260830212058 65 0 0.0 3.0 0.00 0.04 0.04 73 1012.4
20260830211600 65 258 0.0 3.0 0.00 0.04 0.04 73 1012.4
20260830211058 65 0 1.0 3.0 0.00 0.04 0.04 72 1012.4
20260830210558 66 0 1.0 3.0 0.00 0.04 0.04 72 1012.4
20260830210115 66 258 0.0 3.0 0.00 0.04 0.04 71 1012.4
20260830205559 66 258 0.0 3.0 0.00 0.04 0.04 71 1012.5
20260830205057 66 360 1.0 5.0 0.00 0.04 0.04 71 1012.5
20260830204605 66 360 1.0 5.0 0.00 0.04 0.04 71 1012.5
20260830204057 66 360 1.0 4.0 0.00 0.04 0.04 71 1012.4
20260830203557 66 0 1.0 5.0 0.00 0.04 0.04 71 1012.5
20260830203103 66 360 2.0 6.0 0.00 0.04 0.04 71 1012.4
20260830202557 66 360 2.0 6.0 0.00 0.04 0.04 71 1012.5
20260830202058 66 360 2.0 4.0 0.00 0.04 0.04 71 1012.5
20260830201612 66 360 1.0 5.0 0.00 0.04 0.04 71 1012.5
20260830201101 66 360 2.0 11.0 0.00 0.04 0.04 71 1012.5
20260830200557 67 360 2.0 11.0 0.00 0.04 0.04 71 1012.5
20260830195557 67 360 3.0 6.0 0.00 0.04 0.04 71 1012.6
20260830195057 67 360 3.0 6.0 0.00 0.04 0.04 71 1012.7
20260830194613 67 360 3.0 6.0 0.00 0.04 0.04 71 1012.7
20260830194057 67 360 3.0 6.0 0.00 0.04 0.04 70 1012.7
20260830193601 67 360 3.0 8.0 0.00 0.04 0.04 70 1012.7
20260830193101 67 360 3.0 8.0 0.00 0.04 0.04 70 1012.7
20260830192559 67 360 3.0 9.0 0.00 0.04 0.04 70 1012.8
20260830192058 67 360 4.0 9.0 0.00 0.04 0.04 70 1012.7
20260830191609 67 360 4.0 9.0 0.00 0.04 0.04 70 1012.7
20260830191057 67 360 4.0 9.0 0.00 0.04 0.04 69 1012.7
20260830190558 67 360 5.0 9.0 0.00 0.04 0.04 69 1012.6
20260830190110 67 360 4.0 9.0 0.00 0.04 0.04 69 1012.7
20260830185558 67 360 4.0 8.0 0.00 0.04 0.04 69 1012.6
20260830185221 67 360 4.0 9.0 0.00 0.04 0.04 69 1012.5
20260830184606 67 360 3.0 9.0 0.00 0.04 0.04 69 1012.5
20260830184056 67 360 4.0 9.0 0.00 0.04 0.04 69 1012.5
20260830183558 67 360 4.0 9.0 0.00 0.04 0.04 68 1012.5
20260830183101 68 360 4.0 9.0 0.00 0.04 0.04 68 1012.4
20260830182558 68 360 3.0 12.0 0.00 0.04 0.04 68 1012.4
20260830182058 68 360 6.0 12.0 0.00 0.04 0.04 68 1012.4
20260830181603 68 360 6.0 12.0 0.00 0.04 0.04 67 1012.4
20260830181057 69 360 5.0 12.0 0.00 0.04 0.04 67 1012.3
20260830180558 69 360 4.0 11.0 0.00 0.04 0.04 67 1012.3
20260830180105 69 360 6.0 11.0 0.00 0.04 0.04 66 1012.3
20260830175557 69 360 7.0 14.0 0.00 0.04 0.04 66 1012.3
20260830175057 69 360 7.0 14.0 0.00 0.04 0.04 66 1012.2
20260830174637 69 360 7.0 14.0 0.00 0.04 0.04 66 1012.1
20260830174058 69 360 6.0 14.0 0.00 0.04 0.04 66 1012.1
20260830173558 69 360 5.0 11.0 0.00 0.04 0.04 67 1012.1
20260830173103 69 215 3.0 11.0 0.00 0.04 0.04 67 1012.1
20260830172557 69 360 5.0 11.0 0.00 0.04 0.04 67 1012.1
20260830172058 69 360 7.0 11.0 0.00 0.04 0.04 66 1012.1
20260830171614 69 360 4.0 11.0 0.00 0.04 0.04 66 1012.1
20260830171056 70 360 6.0 14.0 0.00 0.04 0.04 65 1012.0
20260830170557 70 360 6.0 14.0 0.00 0.04 0.04 65 1012.0
20260830165557 70 360 8.0 14.0 0.00 0.04 0.04 65 1011.9
20260830165057 70 242 8.0 14.0 0.00 0.04 0.04 65 1011.9
20260830164605 70 266 8.0 18.0 0.00 0.04 0.04 65 1011.9
20260830164057 70 266 9.0 18.0 0.00 0.04 0.04 65 1011.9
20260830163558 70 259 7.0 18.0 0.00 0.04 0.04 65 1012.0
20260830163103 70 247 9.0 18.0 0.00 0.04 0.04 64 1012.0
20260830162557 70 239 9.0 18.0 0.00 0.04 0.04 64 1012.0
20260830162058 70 239 10.0 17.0 0.00 0.04 0.04 64 1011.9
20260830161615 70 249 9.0 17.0 0.00 0.04 0.04 65 1012.0
20260830161057 70 236 7.0 14.0 0.00 0.04 0.04 65 1011.9
20260830160603 70 257 8.0 14.0 0.00 0.04 0.04 66 1012.0
20260830155558 70 232 5.0 11.0 0.00 0.04 0.04 66 1011.9
20260830155058 70 242 6.0 12.0 0.00 0.04 0.04 66 1011.9
20260830154606 70 262 7.0 12.0 0.00 0.04 0.04 66 1012.0
20260830154100 70 281 7.0 14.0 0.00 0.04 0.04 66 1012.0
20260830153558 70 244 8.0 15.0 0.00 0.04 0.04 65 1012.0
20260830153106 70 250 8.0 18.0 0.00 0.04 0.04 65 1012.0
20260830152557 70 273 8.0 18.0 0.00 0.04 0.04 65 1011.9
20260830152057 70 289 11.0 18.0 0.00 0.04 0.04 65 1012.1
20260830151601 70 239 8.0 19.0 0.00 0.04 0.04 67 1012.1
20260830151100 70 276 8.0 19.0 0.00 0.04 0.04 66 1012.0
20260830150559 70 280 6.0 15.0 0.00 0.04 0.04 67 1012.0
20260830145559 70 261 7.0 13.0 0.00 0.04 0.04 66 1011.9
20260830145058 70 265 7.0 14.0 0.00 0.04 0.04 67 1011.9
20260830144605 70 240 5.0 18.0 0.00 0.04 0.04 67 1012.0
20260830144058 70 253 8.0 18.0 0.00 0.04 0.04 67 1011.9
20260830143558 70 252 10.0 18.0 0.00 0.04 0.04 67 1011.9
20260830143103 70 270 6.0 14.0 0.00 0.04 0.04 68 1011.9
20260830142557 69 252 6.0 13.0 0.00 0.04 0.04 69 1011.9
20260830142056 69 360 8.0 13.0 0.00 0.04 0.04 69 1011.8
20260830141559 69 246 6.0 14.0 0.00 0.04 0.04 69 1011.8
20260830141056 70 232 6.0 14.0 0.00 0.04 0.04 69 1011.8
20260830140602 70 237 7.0 16.0 0.00 0.04 0.04 67 1011.8
20260830140116 70 254 8.0 16.0 0.00 0.04 0.04 68 1011.7
20260830135556 70 266 7.0 16.0 0.00 0.04 0.04 69 1011.7
20260830135057 69 360 7.0 16.0 0.00 0.04 0.04 70 1011.7